• In Netherlands
  • List of Countries
  • For 7 days
  • Water Temperature
  • Satellite Maps
  • Weather Map
  • Weather Widgets
  • user-avatar
    Login

    Hourly Weather Wavre

    Today, 20 January, Saturday

    Time Temperature Precipitation Wind Pressure Humidity
    00:00 0°C° 0 mm 5 mps 751 mmHg 91%
    01:00 0°C° 0 mm 5 mps 751 mmHg 91%
    02:00 0°C° 0 mm 4 mps 751 mmHg 92%
    03:00 0°C° 0 mm 4 mps 751 mmHg 92%
    04:00 0°C° 0 mm 4 mps 750 mmHg 93%
    05:00 0°C° 0 mm 4 mps 750 mmHg 93%
    06:00 0°C° 0 mm 5 mps 749 mmHg 93%
    07:00 0°C° 0.2 mm 4 mps 749 mmHg 93%
    08:00 +1°C° 0.2 mm 4 mps 748 mmHg 92%
    09:00 +1°C° 0.2 mm 4 mps 747 mmHg 91%
    10:00 +3°C° 0.4 mm 4 mps 747 mmHg 89%
    11:00 +3°C° 0.4 mm 4 mps 746 mmHg 88%
    12:00 +3°C° 0.4 mm 4 mps 745 mmHg 86%
    13:00 +3°C° 0.4 mm 3 mps 744 mmHg 87%
    14:00 +4°C° 0.4 mm 2 mps 744 mmHg 89%
    15:00 +5°C° 0.4 mm 1 mps 743 mmHg 91%
    16:00 +5°C° 0.1 mm 1 mps 744 mmHg 92%
    17:00 +4°C° 0.1 mm 2 mps 744 mmHg 94%
    18:00 +4°C° 0.1 mm 2 mps 745 mmHg 95%
    19:00 +3°C° 0 mm 2 mps 746 mmHg 95%
    20:00 +3°C° 0 mm 2 mps 747 mmHg 96%
    21:00 +2°C° 0 mm 2 mps 747 mmHg 96%
    22:00 +2°C° 0 mm 2 mps 748 mmHg 96%
    23:00 +2°C° 0 mm 2 mps 749 mmHg 95%

    Tomorrow, 21 January, Sunday

    Time Temperature Precipitation Wind Pressure Humidity
    00:00 +2°C° 0 mm 2 mps 750 mmHg 95%
    01:00 +2°C° 0 mm 2 mps 750 mmHg 95%
    02:00 +1°C° 0 mm 2 mps 751 mmHg 94%
    03:00 +1°C° 0 mm 2 mps 752 mmHg 94%
    04:00 +1°C° 0 mm 2 mps 752 mmHg 93%
    05:00 +1°C° 0 mm 2 mps 753 mmHg 92%
    06:00 +1°C° 0 mm 2 mps 753 mmHg 91%
    07:00 +2°C° 0 mm 2 mps 754 mmHg 89%
    08:00 +2°C° 0 mm 2 mps 754 mmHg 88%
    09:00 +2°C° 0 mm 2 mps 755 mmHg 86%
    10:00 +3°C° 0 mm 2 mps 755 mmHg 84%
    11:00 +4°C° 0 mm 2 mps 755 mmHg 81%
    12:00 +5°C° 0 mm 2 mps 756 mmHg 78%
    13:00 +4°C° 0.2 mm 2 mps 755 mmHg 80%
    14:00 +3°C° 0.2 mm 3 mps 755 mmHg 83%
    15:00 +3°C° 0.2 mm 3 mps 754 mmHg 85%
    16:00 +3°C° 1.3 mm 4 mps 754 mmHg 85%
    17:00 +2°C° 1.3 mm 5 mps 753 mmHg 85%
    18:00 +2°C° 1.3 mm 6 mps 753 mmHg 86%
    19:00 +2°C° 1.6 mm 6 mps 752 mmHg 88%
    20:00 +3°C° 1.6 mm 6 mps 751 mmHg 90%
    21:00 +4°C° 1.6 mm 6 mps 750 mmHg 93%
    22:00 +5°C° 1.2 mm 6 mps 750 mmHg 93%
    23:00 +7°C° 1.2 mm 6 mps 749 mmHg 94%

    Day after tomorrow, 22 January, Monday

    Time Temperature Precipitation Wind Pressure Humidity
    00:00 +9°C° 1.2 mm 6 mps 749 mmHg 95%
    01:00 +9°C° 0.3 mm 6 mps 749 mmHg 95%
    02:00 +9°C° 0.3 mm 6 mps 749 mmHg 95%
    03:00 +9°C° 0.3 mm 6 mps 749 mmHg 95%
    04:00 +9°C° 0.2 mm 6 mps 750 mmHg 94%
    05:00 +9°C° 0.2 mm 6 mps 750 mmHg 93%
    06:00 +9°C° 0.2 mm 6 mps 750 mmHg 92%
    07:00 +9°C° 0.1 mm 5 mps 751 mmHg 92%
    08:00 +8°C° 0.1 mm 5 mps 752 mmHg 93%
    09:00 +8°C° 0.1 mm 4 mps 752 mmHg 94%
    10:00 +8°C° 0.1 mm 4 mps 752 mmHg 92%
    11:00 +8°C° 0.1 mm 4 mps 753 mmHg 91%
    12:00 +10°C° 0.1 mm 4 mps 753 mmHg 90%
    13:00 +9°C° 0.1 mm 3 mps 753 mmHg 90%
    14:00 +9°C° 0.1 mm 3 mps 753 mmHg 91%
    15:00 +9°C° 0.1 mm 3 mps 754 mmHg 91%
    16:00 +8°C° 0.1 mm 2 mps 754 mmHg 92%
    17:00 +8°C° 0.1 mm 2 mps 754 mmHg 93%
    18:00 +7°C° 0.1 mm 2 mps 755 mmHg 94%
    19:00 +8°C° 0.1 mm 1 mps 755 mmHg 94%
    20:00 +7°C° 0.1 mm 1 mps 756 mmHg 94%
    21:00 +7°C° 0.1 mm 1 mps 756 mmHg 94%
    22:00 +6°C° 0 mm 1 mps 757 mmHg 94%
    23:00 +6°C° 0 mm 1 mps 758 mmHg 94%

    23 January, Tuesday

    Time Temperature Precipitation Wind Pressure Humidity
    00:00 +5°C° 0 mm 1 mps 758 mmHg 94%
    01:00 +5°C° 0 mm 1 mps 759 mmHg 94%
    02:00 +5°C° 0 mm 1 mps 759 mmHg 94%
    03:00 +4°C° 0 mm 1 mps 759 mmHg 94%
    04:00 +4°C° 0 mm 1 mps 760 mmHg 94%
    05:00 +3°C° 0 mm 2 mps 760 mmHg 94%
    06:00 +3°C° 0 mm 2 mps 760 mmHg 93%
    07:00 +3°C° 0 mm 2 mps 761 mmHg 92%
    08:00 +3°C° 0 mm 3 mps 761 mmHg 91%
    09:00 +3°C° 0 mm 3 mps 761 mmHg 89%
    10:00 +5°C° 0 mm 4 mps 761 mmHg 86%
    11:00 +6°C° 0 mm 4 mps 761 mmHg 83%
    12:00 +7°C° 0 mm 5 mps 761 mmHg 79%
    13:00 +8°C° 0 mm 5 mps 761 mmHg 80%
    14:00 +8°C° 0 mm 5 mps 761 mmHg 81%
    15:00 +8°C° 0 mm 4 mps 761 mmHg 81%
    16:00 +8°C° 0 mm 5 mps 761 mmHg 83%
    17:00 +7°C° 0 mm 5 mps 761 mmHg 84%
    18:00 +7°C° 0 mm 6 mps 761 mmHg 86%
    19:00 +7°C° 0 mm 6 mps 761 mmHg 88%
    20:00 +7°C° 0 mm 6 mps 761 mmHg 90%
    21:00 +7°C° 0 mm 6 mps 761 mmHg 91%
    22:00 +8°C° 0 mm 6 mps 761 mmHg 91%
    23:00 +8°C° 0 mm 6 mps 760 mmHg 92%

    24 January, Wednesday

    Time Temperature Precipitation Wind Pressure Humidity
    00:00 +9°C° 0 mm 6 mps 760 mmHg 92%
    01:00 +9°C° 0 mm 6 mps 760 mmHg 92%
    02:00 +9°C° 0 mm 6 mps 760 mmHg 92%
    03:00 +10°C° 0 mm 6 mps 760 mmHg 92%
    04:00 +10°C° 0 mm 6 mps 760 mmHg 92%
    05:00 +10°C° 0 mm 6 mps 760 mmHg 92%
    06:00 +10°C° 0 mm 6 mps 760 mmHg 92%
    07:00 +10°C° 0 mm 6 mps 760 mmHg 91%
    08:00 +10°C° 0 mm 6 mps 760 mmHg 91%
    09:00 +10°C° 0 mm 7 mps 760 mmHg 90%
    10:00 +10°C° 0.1 mm 7 mps 760 mmHg 89%
    11:00 +10°C° 0.1 mm 7 mps 760 mmHg 87%
    12:00 +11°C° 0.1 mm 7 mps 759 mmHg 86%
    13:00 +11°C° 0.1 mm 7 mps 759 mmHg 85%
    14:00 +11°C° 0.1 mm 8 mps 758 mmHg 85%
    15:00 +11°C° 0.1 mm 8 mps 758 mmHg 84%
    16:00 +10°C° 0.1 mm 8 mps 758 mmHg 84%
    17:00 +10°C° 0.1 mm 8 mps 758 mmHg 84%
    18:00 +10°C° 0.1 mm 8 mps 757 mmHg 84%
    19:00 +10°C° 0 mm 8 mps 757 mmHg 83%
    20:00 +10°C° 0 mm 8 mps 757 mmHg 83%
    21:00 +10°C° 0 mm 8 mps 757 mmHg 83%
    22:00 +10°C° 0.2 mm 8 mps 756 mmHg 84%
    23:00 +10°C° 0.2 mm 8 mps 756 mmHg 85%

    25 January, Thursday

    Time Temperature Precipitation Wind Pressure Humidity
    00:00 +10°C° 0.2 mm 8 mps 755 mmHg 85%
    01:00 +10°C° 0.7 mm 8 mps 755 mmHg 86%
    02:00 +10°C° 0.7 mm 8 mps 755 mmHg 86%
    03:00 +10°C° 0.7 mm 8 mps 754 mmHg 87%
    04:00 +10°C° 1 mm 7 mps 754 mmHg 88%
    05:00 +9°C° 1 mm 7 mps 754 mmHg 89%
    06:00 +9°C° 1 mm 6 mps 754 mmHg 90%
    07:00 +8°C° 1.9 mm 5 mps 754 mmHg 90%
    08:00 +8°C° 1.9 mm 4 mps 755 mmHg 90%
    09:00 +8°C° 1.9 mm 3 mps 755 mmHg 91%
    10:00 +8°C° 0.6 mm 2 mps 755 mmHg 89%
    11:00 +7°C° 0.6 mm 2 mps 755 mmHg 87%
    12:00 +8°C° 0.6 mm 1 mps 755 mmHg 86%
    13:00 +8°C° 0.4 mm 1 mps 755 mmHg 86%
    14:00 +8°C° 0.4 mm 1 mps 755 mmHg 86%
    15:00 +8°C° 0.4 mm 1 mps 755 mmHg 87%
    16:00 +8°C° 0.3 mm 1 mps 755 mmHg 88%
    17:00 +7°C° 0.3 mm 1 mps 755 mmHg 90%
    18:00 +7°C° 0.3 mm 1 mps 755 mmHg 91%
    19:00 +6°C° 0.2 mm 2 mps 755 mmHg 92%
    20:00 +6°C° 0.2 mm 2 mps 756 mmHg 92%
    21:00 +6°C° 0.2 mm 2 mps 756 mmHg 92%
    22:00 +6°C° 0.1 mm 2 mps 756 mmHg 92%
    23:00 +5°C° 0.1 mm 2 mps 756 mmHg 92%
    Show more